Beverly, MA

6:54 AM EDT on October 20, 2017 (GMT -0400)
Beverly Municipal

Weather History for KBVY - February, 2013

Change the Weather History Date:

Monday, February 11, 2013

  Actual Average Record
Temperature  
Mean Temperature 28 °F -  
Max Temperature 41 °F 34 °F 63 °F (1981)
Min Temperature 15 °F 17 °F 3 °F (2011)
Degree Days  
Heating Degree Days 37    
Moisture  
Dew Point 29 °F    
Average Humidity 85    
Maximum Humidity 100    
Minimum Humidity 58    
Precipitation  
Precipitation 0.23 in - - ()
Sea Level Pressure  
Sea Level Pressure 29.89 in    
Wind  
Wind Speed 5 mph (SSE)    
Max Wind Speed 15 mph    
Max Gust Speed 22 mph    
Visibility 4 miles    
Events Fog , Rain , Snow    
Averages and records for this station are not official NWS values.
T = Trace of Precipitation, MM = Missing Value Source: NWS Daily Summary

Daily Weather History Graph

Daily Weather History Graph

Search for Another Location

Airport or City:

Trip Planner

Search our weather history database for the weather conditions in past years. The results will help you decide how hot, cold, wet, or windy it might be!

Date:

Astronomy

Feb. 11, 2013 Rise Set
Actual Time 6:45 AM EST 5:10 PM EST
Civil Twilight 6:16 AM EST 5:39 PM EST
Nautical Twilight 5:43 AM EST 6:13 PM EST
Astronomical Twilight 5:10 AM EST 6:45 PM EST
Moon 7:05 AM EST (2/11) 7:08 PM EST (2/11)
Length of Visible Light 11h 23m
Length of Day
10h 25m
Waxing Crescent, 3% of the Moon is Illuminated
Feb 11
Waxing Crescent
Feb 17
First Quarter
Feb 25
Full
Mar 4
Last Quarter
Mar 11
New

Hourly Weather History & Observations

Time (EST) Temp. Windchill Dew Point Humidity Pressure Visibility Wind Dir Wind Speed Gust Speed Precip Events Conditions
12:53 AM 15.1 °F - 6.1 °F 68% 30.33 in 10.0 mi Calm Calm - N/A   Clear
1:53 AM 15.1 °F - 7.0 °F 70% 30.30 in 10.0 mi Calm Calm - N/A   Clear
2:53 AM 17.6 °F - 6.8 °F 63% 30.28 in 10.0 mi Calm Calm - N/A   Clear
3:53 AM 21.9 °F - 9.0 °F 58% 30.26 in 10.0 mi Calm Calm - N/A   Clear
4:53 AM 23.0 °F 18.4 °F 12.9 °F 65% 30.24 in 10.0 mi SE 3.5 mph - N/A   Clear
5:53 AM 25.0 °F 19.3 °F 15.1 °F 66% 30.23 in 10.0 mi South 4.6 mph - N/A   Partly Cloudy
6:53 AM 28.0 °F 22.8 °F 17.1 °F 63% 30.21 in 10.0 mi SSE 4.6 mph - N/A   Overcast
7:53 AM 30.0 °F 24.1 °F 19.0 °F 64% 30.19 in 10.0 mi SSE 5.8 mph - N/A   Overcast
8:53 AM 33.1 °F 27.7 °F 24.1 °F 70% 30.16 in 6.0 mi South 5.8 mph - N/A   Haze
9:53 AM 34.0 °F 25.5 °F 28.0 °F 79% 30.09 in 6.0 mi SSE 11.5 mph - 0.02 in Snow Light Snow
10:07 AM 35.6 °F 28.0 °F 28.4 °F 75% 30.09 in 5.0 mi SSE 10.4 mph - 0.00 in Snow Light Snow
10:35 AM 35.6 °F 27.5 °F 30.2 °F 81% 30.05 in 5.0 mi SE 11.5 mph 21.9 mph 0.03 in Rain Light Rain
10:53 AM 36.0 °F 29.6 °F 32.0 °F 86% 30.04 in 6.0 mi SSE 8.1 mph - 0.04 in Rain Light Rain
11:36 AM 37.4 °F 29.8 °F 33.8 °F 87% 29.99 in 6.0 mi SSE 11.5 mph - 0.03 in Rain Light Rain
11:38 AM 37.4 °F 28.9 °F 33.8 °F 87% 29.99 in 5.0 mi SSE 13.8 mph - 0.03 in Rain Light Rain
11:53 AM 37.9 °F 29.2 °F 34.0 °F 86% 29.96 in 2.5 mi SSE 15.0 mph 19.6 mph 0.04 in Rain Light Rain
12:01 PM 37.4 °F 29.3 °F 33.8 °F 87% 29.96 in 2.5 mi SSE 12.7 mph - 0.00 in Rain Light Rain
12:11 PM 37.4 °F 29.3 °F 33.8 °F 87% 29.95 in 1.8 mi SSE 12.7 mph - 0.00 in Rain Light Rain
12:53 PM 37.9 °F 30.9 °F 35.1 °F 89% 29.88 in 2.0 mi SSE 10.4 mph - 0.03 in Rain Light Rain
1:27 PM 37.4 °F 30.3 °F 35.6 °F 93% 29.85 in 2.0 mi SSE 10.4 mph - 0.04 in Rain Light Rain
1:53 PM 39.0 °F 32.8 °F 37.0 °F 93% 29.81 in 2.0 mi SSE 9.2 mph - 0.05 in Rain Light Rain
2:53 PM 41.0 °F 35.2 °F 39.0 °F 93% 29.78 in 2.0 mi South 9.2 mph - 0.01 in   Overcast
3:53 PM 41.0 °F - 39.9 °F 96% 29.74 in 0.2 mi Calm Calm - 0.03 in Fog , Rain Light Rain
4:53 PM 41.0 °F - 39.0 °F 93% 29.70 in 0.2 mi Calm Calm - 0.01 in Fog Fog
5:53 PM 37.9 °F - 37.0 °F 97% 29.68 in 0.2 mi Calm Calm - N/A Fog Fog
6:53 PM 36.0 °F 33.3 °F 35.1 °F 97% 29.67 in 0.2 mi NW 3.5 mph - N/A Fog Fog
7:40 PM 35.6 °F 31.7 °F 35.6 °F 100% 29.66 in 0.5 mi NNW 4.6 mph - N/A Fog Fog
7:53 PM 36.0 °F 33.3 °F 35.1 °F 97% 29.65 in 0.2 mi North 3.5 mph - N/A Fog Fog
8:27 PM 35.6 °F 32.8 °F 32.0 °F 87% 29.64 in 0.5 mi NNW 3.5 mph - N/A Fog Fog
8:53 PM 35.1 °F - 34.0 °F 96% 29.62 in 0.8 mi Calm Calm - N/A   Overcast
9:53 PM 34.0 °F 31.0 °F 33.1 °F 96% 29.60 in 0.5 mi NW 3.5 mph - N/A Fog Fog
10:09 PM 35.6 °F 31.7 °F 33.8 °F 93% 29.61 in 1.2 mi NNW 4.6 mph - N/A   Overcast
10:35 PM 35.6 °F 30.7 °F 33.8 °F 93% 29.61 in 2.0 mi NNW 5.8 mph - N/A   Overcast
10:46 PM 35.6 °F 32.8 °F 33.8 °F 93% 29.59 in 1.5 mi North 3.5 mph - N/A   Overcast
10:53 PM 35.1 °F 32.2 °F 34.0 °F 96% 29.59 in 1.2 mi NW 3.5 mph - N/A   Overcast
11:10 PM 35.6 °F - 33.8 °F 93% 29.60 in 0.5 mi Calm Calm - N/A Fog Fog
11:40 PM 35.6 °F - 33.8 °F 93% 29.60 in 1.2 mi Calm Calm - N/A   Overcast
11:53 PM 35.1 °F 32.2 °F 33.1 °F 92% 29.60 in 1.2 mi WNW 3.5 mph - N/A   Overcast